Date,TemperatureHighF,TemperatureAvgF,TemperatureLowF,DewpointHighF,DewpointAvgF,DewpointLowF,HumidityHigh,HumidityAvg,HumidityLow,PressureMaxIn,PressureMinIn,WindSpeedMaxMPH,WindSpeedAvgMPH,GustSpeedMaxMPH,PrecipitationSumIn
2013-1-1,38.3,34.6,27.9,21.0,14.3,-0.1,53,43,29,29.83,29.69,13,4,21,0.00
2013-1-2,32.4,26.7,23.0,4.7,1.1,-2.7,44,33,23,30.02,29.81,14,4,21,0.00
2013-1-3,36.0,26.9,12.7,9.8,2.5,-9.7,74,37,14,30.02,29.89,11,2,17,0.00
2013-1-4,41.7,33.6,31.6,11.2,6.4,1.5,40,31,21,29.93,29.81,17,7,28,0.13
2013-1-5,41.7,31.8,25.5,15.1,9.1,1.9,60,39,20,30.18,29.90,17,4,22,0.00
2013-1-6,45.3,35.3,27.0,20.5,16.0,9.6,66,47,24,29.98,29.78,7,1,11,0.00
2013-1-7,43.9,36.6,24.1,22.0,18.0,7.9,81,48,24,30.19,29.91,12,3,20,0.00
2013-1-8,48.9,31.4,19.0,25.6,17.5,8.7,87,62,20,30.19,30.13,5,1,8,0.00
2013-1-9,46.0,31.6,20.8,28.2,21.7,11.6,88,70,26,30.18,29.96,17,2,27,0.01
2013-1-10,50.7,39.3,31.3,21.8,14.6,2.6,67,39,14,30.37,30.13,11,2,16,0.00
2013-1-11,45.5,37.0,31.5,38.0,26.8,14.4,99,70,32,30.29,29.90,11,1,16,0.22
2013-1-12,46.8,39.7,36.1,44.0,38.6,35.2,99,96,76,29.97,29.90,5,1,8,0.01
2013-1-13,52.0,43.7,38.5,48.3,43.4,38.2,99,99,99,29.92,29.75,6,0,10,0.00
2013-1-14,52.2,46.8,38.5,49.0,31.8,12.9,99,62,29,30.12,29.70,15,3,22,0.08
2013-1-15,39.0,34.4,30.7,27.3,17.2,13.4,86,49,37,30.18,29.99,11,2,16,0.00
2013-1-16,35.6,31.8,29.8,33.7,31.5,27.1,99,99,86,29.99,29.68,5,0,9,0.00
2013-1-17,41.9,35.5,30.7,33.2,25.3,17.5,99,69,40,29.93,29.75,11,2,17,0.24
2013-1-18,36.3,28.7,24.1,24.4,-3.0,-19.2,69,28,10,30.26,29.82,18,5,31,0.27
2013-1-19,53.8,40.3,25.2,13.1,4.4,-4.9,59,25,10,30.12,29.63,12,4,19,0.00
2013-1-20,50.7,39.2,24.6,15.6,0.7,-14.8,36,21,10,29.90,29.51,25,8,40,7.85
2013-1-21,28.2,24.0,18.3,22.5,5.2,-13.3,88,46,23,29.91,29.66,17,3,27,0.05
2013-1-22,19.0,13.8,9.0,-7.5,-17.8,-31.1,37,23,10,30.05,29.72,21,6,30,1.02
2013-1-23,19.6,11.7,7.3,-3.9,-13.1,-29.1,58,33,11,30.08,29.93,0,0,1,0.00
2013-1-24,25.5,16.3,7.5,4.3,-12.7,-28.2,67,33,10,30.29,29.91,0,0,1,0.12
2013-1-25,18.0,13.7,9.1,8.7,-3.3,-16.5,78,50,22,30.29,29.85,0,0,0,0.00
2013-1-26,29.7,17.2,8.4,10.3,3.1,-8.4,81,58,19,30.21,29.87,0,0,1,0.02
2013-1-27,37.6,19.3,3.2,8.2,-1.9,-16.8,77,46,10,30.37,30.21,0,0,1,0.00
2013-1-28,34.2,29.5,21.4,33.9,24.3,7.1,99,82,52,30.26,29.81,0,0,0,0.14
2013-1-29,42.4,36.1,33.1,41.1,35.7,32.8,99,98,89,29.92,29.76,0,0,0,0.06
2013-1-30,65.7,46.9,32.5,60.5,46.0,32.3,99,97,71,29.76,29.01,0,0,0,0.65
2013-1-31,56.3,37.2,26.2,56.0,16.9,-5.2,99,48,19,29.61,28.91,21,2,34,14.88
2013-2-1,28.8,23.8,17.6,11.2,-6.7,-22.7,54,27,10,30.09,29.59,22,9,34,6.14
2013-2-2,23.9,18.7,13.5,15.3,-1.4,-8.6,81,42,25,30.11,29.80,11,4,17,0.00
2013-2-3,31.1,24.4,19.2,23.4,14.6,-3.8,91,69,29,29.81,29.58,16,2,30,0.31
2013-2-4,32.2,24.7,20.7,20.5,0.4,-14.2,82,38,14,29.83,29.69,17,5,28,0.11
2013-2-5,32.4,28.8,25.2,28.3,21.5,17.3,92,75,54,29.74,29.64,4,0,7,0.02
2013-2-6,41.5,31.6,21.6,27.3,10.8,-12.7,91,48,10,30.15,29.72,14,3,22,0.04
2013-2-7,36.9,27.7,17.8,13.1,4.5,-7.1,76,42,17,30.24,30.02,14,3,20,0.00
2013-2-8,39.4,33.7,27.3,33.2,23.2,9.6,99,67,39,30.02,29.56,12,2,19,0.04
2013-2-9,28.4,24.4,21.7,15.4,5.2,1.2,65,44,31,30.05,29.73,18,4,27,0.15
2013-2-12,41.7,36.7,26.6,19.6,13.5,9.1,74,40,28,29.81,29.59,20,7,30,2.21
2013-2-13,42.1,31.6,20.7,32.7,22.2,15.7,99,72,34,29.76,29.50,4,1,6,0.00
2013-2-14,48.9,37.5,28.0,32.8,23.0,14.1,99,62,25,29.78,29.55,4,1,9,0.14
2013-2-15,48.9,40.7,32.4,32.2,18.7,2.6,94,46,15,29.80,29.72,7,2,11,0.06
2013-2-16,35.2,31.2,26.8,30.5,8.4,-6.4,99,44,18,29.80,29.65,9,2,12,0.00
2013-2-17,29.1,23.8,18.9,4.0,-9.4,-25.4,43,24,10,29.95,29.63,17,9,29,5.50
2013-2-18,39.2,31.1,17.1,-0.5,-13.9,-17.8,43,15,10,30.12,29.89,11,3,14,0.00
2013-2-19,43.3,32.5,24.3,34.9,18.2,-16.4,96,61,10,29.89,29.47,18,3,33,0.47
2013-2-20,31.1,25.4,22.1,12.7,-1.2,-8.4,49,31,22,29.89,29.62,21,10,34,2.30
2013-2-21,37.4,27.7,22.8,6.7,-0.0,-10.6,47,31,12,30.15,29.87,17,7,29,0.41
2013-2-22,34.2,28.0,20.3,18.4,11.0,6.5,66,49,33,30.19,29.99,10,2,15,0.00
2013-2-23,39.0,34.8,32.7,35.6,30.9,18.4,99,86,54,30.00,29.64,9,1,12,0.01
2013-2-24,39.6,34.9,31.3,36.4,20.7,3.6,99,62,22,29.88,29.62,15,4,24,0.01
2013-2-25,52.0,35.7,26.8,19.2,10.6,-6.5,71,39,10,30.01,29.87,10,2,13,0.00
2013-2-26,42.1,33.3,23.0,33.7,22.6,13.5,94,68,31,30.04,29.56,16,3,23,0.28
2013-2-27,43.9,39.3,35.4,38.8,35.9,33.4,99,88,69,29.57,29.35,8,1,12,0.34
2013-2-28,44.1,38.7,32.0,35.7,27.9,17.4,95,67,36,29.49,29.39,11,2,20,0.04
2013-3-1,43.9,37.9,32.7,25.4,16.8,9.8,61,43,28,29.68,29.48,15,5,21,0.00
2013-3-2,37.0,32.5,28.9,13.7,9.3,3.8,52,38,25,29.68,29.58,14,6,21,0.00
2013-3-3,34.7,30.5,26.8,10.7,6.3,0.1,48,36,23,29.67,29.58,14,7,21,0.01
2013-3-4,37.0,30.6,26.2,10.9,6.0,0.7,42,35,25,29.83,29.67,19,8,27,0.07
2013-3-5,46.8,33.8,29.1,17.0,11.8,2.7,57,41,17,29.88,29.69,11,3,17,0.00
2013-3-6,45.1,39.3,31.3,19.7,17.6,13.5,55,42,28,29.85,29.61,18,5,27,0.00
2013-3-7,45.5,39.1,34.2,16.1,8.8,-3.0,40,29,14,29.98,29.84,18,6,24,0.00
2013-3-8,45.1,37.6,32.2,12.2,7.6,1.8,43,29,17,30.14,29.96,24,8,35,1.72
2013-3-9,62.4,41.8,25.7,17.6,7.5,-7.7,60,29,10,30.18,30.05,11,2,14,0.00
2013-3-10,65.5,45.2,25.9,22.7,9.7,-3.4,75,34,10,30.11,29.97,15,3,24,0.00
2013-3-11,57.6,50.5,42.1,42.4,24.4,3.0,61,39,13,30.00,29.67,21,4,34,0.00
2013-3-12,56.8,50.0,41.4,51.5,37.2,18.4,96,63,39,29.75,29.56,17,6,27,0.56
2013-3-13,47.1,38.3,30.6,27.3,15.1,-9.0,75,41,10,29.80,29.65,20,5,30,0.58
2013-3-14,41.9,33.5,28.0,16.4,-5.9,-18.0,61,21,10,29.87,29.76,24,9,38,6.47
2013-3-15,48.9,37.7,22.1,19.1,8.2,-6.9,61,31,16,29.87,29.54,20,5,30,0.09
2013-3-16,42.1,33.9,30.6,29.1,20.8,4.6,92,62,28,29.75,29.54,11,1,19,0.05
2013-3-17,39.9,32.9,27.0,28.3,13.5,-1.4,91,50,19,30.09,29.74,11,2,16,0.04
2013-3-18,32.5,28.8,23.2,29.3,13.5,-4.8,93,58,21,30.13,29.70,15,3,21,0.00
2013-3-19,53.1,38.5,31.1,40.1,20.9,-6.7,99,61,10,29.71,29.49,23,4,35,2.37
2013-3-20,45.3,36.1,30.4,10.8,1.2,-11.1,42,25,10,29.72,29.59,17,6,31,0.06
2013-3-21,36.1,30.4,24.3,12.1,-1.8,-18.9,48,27,10,29.65,29.52,17,5,25,0.01
2013-3-22,39.6,32.2,26.1,19.3,9.2,-0.1,75,40,20,29.77,29.59,19,6,28,0.06
2013-3-23,46.9,37.3,30.2,11.1,1.9,-10.1,44,25,10,29.81,29.71,16,6,22,0.00
2013-3-24,47.7,38.2,27.1,18.4,2.8,-10.8,59,27,10,29.79,29.46,11,2,16,0.00
2013-3-25,39.0,35.9,32.2,32.4,24.6,5.2,91,68,25,29.47,29.34,7,1,10,0.25
2013-3-26,52.0,40.9,32.9,31.7,23.6,3.3,90,55,15,29.74,29.47,18,2,24,0.05
2013-3-27,50.4,41.9,36.3,22.5,13.5,-5.4,53,34,10,29.87,29.74,16,5,25,0.09
2013-3-28,48.0,41.8,35.1,26.8,13.5,-3.0,69,35,12,30.00,29.83,14,4,20,0.00
2013-3-29,53.4,44.7,35.2,23.9,14.6,-3.7,62,32,10,30.02,29.91,14,4,21,0.00
2013-3-30,61.7,43.4,25.9,26.7,12.0,-8.8,88,40,10,30.02,29.88,10,2,16,0.00
2013-3-31,50.0,40.5,29.3,44.0,30.6,14.7,96,69,29,29.90,29.52,11,1,18,0.26
2013-4-1,52.2,44.0,34.7,45.1,19.1,-15.3,99,52,10,29.77,29.50,20,6,36,0.71
2013-4-2,44.1,35.8,29.7,6.8,-6.8,-15.1,36,17,10,29.95,29.76,21,7,30,0.63
2013-4-3,45.0,36.1,26.8,7.8,-5.7,-16.1,44,18,10,30.18,29.92,20,6,29,0.71
2013-4-4,54.3,39.7,22.3,13.0,-1.2,-10.5,64,22,10,30.21,29.83,12,3,17,0.00
2013-4-5,61.9,46.9,30.2,18.3,2.3,-10.8,56,19,10,29.88,29.62,17,4,27,0.08
2013-4-6,57.7,43.2,30.9,9.9,-2.6,-13.4,34,16,10,30.15,29.89,13,3,19,0.00
2013-4-7,68.4,55.2,43.7,28.5,6.1,-7.6,33,14,10,30.02,29.71,19,7,26,0.00
2013-4-8,79.7,63.0,40.1,38.7,26.1,12.5,87,34,10,29.89,29.70,11,2,16,0.00
2013-4-9,86.2,72.3,59.4,43.2,29.2,14.7,49,24,10,29.85,29.64,15,4,23,0.01
2013-4-10,86.9,72.0,60.6,60.5,44.0,31.9,99,42,16,29.73,29.54,27,3,44,0.74
2013-4-11,61.2,55.8,51.1,60.9,48.3,42.8,99,77,56,29.75,29.58,13,3,19,0.06
2013-4-12,53.2,48.2,44.8,47.8,44.3,39.1,97,87,67,29.69,29.46,13,3,18,0.43
2013-4-13,59.4,49.6,43.5,40.0,23.0,8.5,68,37,14,29.77,29.60,14,4,22,0.00
2013-4-14,63.7,51.1,40.8,33.5,14.3,-1.9,74,28,10,29.95,29.76,15,4,23,0.00
2013-4-15,70.7,55.8,45.7,36.8,27.3,16.7,54,34,17,30.07,29.94,13,4,21,0.00
2013-4-16,72.0,61.7,54.5,58.2,45.6,33.5,86,56,42,30.08,29.87,14,4,21,0.08
2013-4-17,75.6,59.8,48.9,61.3,29.9,5.4,99,44,10,30.10,29.93,11,3,17,0.11
2013-4-18,54.0,50.3,48.6,40.8,36.0,32.8,65,58,51,30.04,29.99,3,1,4,0.00
2013-4-20,47.3,40.8,30.7,27.5,18.4,-9.2,73,43,10,29.75,29.62,14,5,21,0.43
2013-4-21,41.2,33.5,28.4,20.8,1.6,-15.2,56,29,10,29.85,29.67,17,9,33,6.14
2013-4-22,48.2,34.5,22.3,11.1,-0.5,-17.2,60,26,10,29.86,29.55,12,5,21,0.52
2013-4-23,48.4,38.3,30.9,27.7,16.7,6.1,82,45,22,29.64,29.54,11,3,20,0.13
2013-4-24,39.7,32.5,29.8,28.8,18.8,-0.6,91,64,19,29.98,29.57,8,1,11,0.05
2013-4-25,38.8,29.7,23.4,24.0,7.9,-4.4,81,43,21,30.12,29.91,13,3,17,0.00
2013-4-26,54.3,40.3,30.0,36.1,24.0,-1.6,99,61,10,30.22,29.55,2,0,4,0.26
2013-4-27,75.6,54.6,33.4,31.7,19.5,4.6,83,36,10,30.25,30.04,7,1,11,0.00
2013-4-28,70.0,56.7,40.1,38.2,26.1,7.2,80,39,10,30.07,29.93,14,3,22,0.01
2013-4-29,59.2,55.9,52.2,57.0,44.2,22.2,98,68,28,29.95,29.86,11,4,17,0.09
2013-4-30,69.1,60.0,54.1,53.2,46.3,22.0,96,64,26,30.11,29.93,11,3,16,0.00
2013-5-1,78.4,60.9,39.7,37.7,20.1,4.5,80,29,10,30.23,30.11,11,2,16,0.00
2013-5-2,78.3,61.3,40.8,41.1,26.4,9.7,93,37,10,30.26,30.09,12,2,17,0.00
2013-5-3,75.7,60.4,45.0,41.0,23.2,5.9,84,33,10,30.21,30.07,14,3,21,0.00
2013-5-4,78.4,59.1,38.1,38.9,25.5,10.7,82,36,10,30.15,29.95,11,2,17,0.00
2013-5-5,75.9,60.1,42.1,41.2,24.4,7.2,85,34,10,30.06,29.92,12,3,18,0.00
2013-5-6,77.4,59.0,39.4,45.1,36.8,26.6,91,48,21,30.03,29.89,11,2,16,0.00
2013-5-7,77.2,64.8,49.3,56.2,44.5,27.7,98,55,17,29.92,29.80,15,3,24,0.00
2013-5-8,70.9,59.5,52.3,63.4,56.7,49.5,99,91,53,29.84,29.72,8,1,18,2.22
2013-5-9,72.9,58.3,48.4,61.4,52.7,44.2,99,84,43,29.79,29.71,6,1,10,0.09
2013-5-10,78.8,63.3,52.2,64.0,55.0,46.4,99,79,37,29.83,29.65,11,1,17,0.20
2013-5-11,74.8,64.7,60.3,65.4,56.9,43.1,97,79,39,29.67,29.51,13,2,24,0.43
2013-5-12,61.0,54.4,43.3,47.6,21.2,0.1,89,34,10,29.80,29.54,20,6,33,0.59
2013-5-13,57.2,47.2,38.1,31.8,9.5,-5.8,75,26,10,29.97,29.79,14,4,21,0.00
2013-5-14,68.2,49.4,29.8,34.8,16.6,-2.0,90,38,10,30.01,29.82,10,2,17,0.00
2013-5-15,77.9,61.4,47.8,55.1,42.2,34.2,84,51,29,29.85,29.46,10,2,20,0.00
2013-5-16,88.3,70.6,54.3,62.1,41.3,10.7,97,49,10,29.72,29.54,12,2,20,0.00
2013-5-17,79.5,64.2,51.1,40.7,26.2,10.3,53,27,10,30.00,29.72,11,2,20,0.00
2013-5-18,73.4,63.0,54.9,49.4,41.5,32.3,67,47,22,30.04,29.99,11,2,17,0.00
2013-5-19,66.0,62.2,59.2,59.3,55.0,49.4,89,77,66,30.04,29.92,10,4,15,0.00
2013-5-20,86.9,70.9,61.5,63.9,59.1,53.2,94,70,33,29.93,29.75,8,1,11,0.00
2013-5-21,94.6,77.9,60.4,69.4,60.3,45.2,99,62,20,29.77,29.60,8,1,14,0.00
2013-5-22,95.0,79.0,66.4,71.9,59.5,41.1,98,59,17,29.69,29.55,17,2,31,0.08
2013-5-23,81.7,69.9,61.9,66.2,62.3,51.3,97,79,48,29.67,29.52,12,1,21,0.46
2013-5-24,62.8,52.7,46.8,61.8,40.1,26.1,99,65,34,29.93,29.52,20,6,31,0.47
2013-5-25,65.1,54.1,44.1,28.0,15.9,2.5,52,26,10,29.94,29.85,19,7,29,0.22
2013-5-26,73.6,58.7,47.1,30.9,16.4,2.7,52,23,10,30.03,29.89,17,5,27,0.04
2013-5-27,78.3,59.5,37.4,41.9,25.9,8.9,93,39,10,30.09,29.94,7,1,11,0.00
2013-5-28,64.9,57.4,51.8,60.8,52.5,41.3,99,84,62,30.00,29.86,5,1,8,0.39
2013-5-29,92.7,74.4,59.9,68.6,56.9,40.2,99,64,18,29.89,29.81,8,2,15,0.01
2013-5-30,97.0,78.0,59.7,67.2,56.4,41.3,99,57,16,29.97,29.87,8,1,11,0.00
2013-5-31,97.2,79.6,63.0,69.7,57.2,39.7,99,56,15,29.93,29.78,10,1,15,0.00
2013-6-1,96.4,80.9,63.9,65.8,56.9,43.6,94,50,17,29.82,29.66,12,1,17,0.00
2013-6-2,90.5,80.6,74.8,62.6,57.5,41.8,64,47,21,29.66,29.57,10,2,21,0.00
2013-6-3,82.4,73.4,59.9,64.2,49.4,32.2,81,46,18,29.77,29.61,11,2,16,0.00
2013-6-4,82.2,64.2,46.8,42.7,28.2,11.9,76,32,10,29.95,29.77,11,2,16,0.00
2013-6-5,85.3,65.8,45.7,46.0,32.6,12.7,88,41,10,30.03,29.83,7,1,11,0.00
2013-6-6,68.9,64.8,60.6,57.6,48.0,36.1,86,58,30,29.87,29.68,14,3,21,0.28
2013-6-7,68.0,65.2,62.6,63.5,60.6,56.1,97,85,74,29.69,29.49,8,1,14,0.09
2013-6-8,81.1,67.8,57.7,62.9,54.5,42.2,99,66,27,29.90,29.52,9,2,14,0.00
2013-6-9,87.6,69.2,52.2,61.3,49.2,31.5,99,59,14,30.01,29.90,7,1,11,0.00
2013-6-10,71.6,67.8,64.2,71.3,64.7,56.7,99,90,70,29.91,29.56,8,2,14,1.44
2013-6-11,78.8,74.4,68.9,64.8,56.1,49.8,84,54,41,29.62,29.52,18,6,28,0.37
2013-6-12,86.7,72.4,61.5,62.6,51.6,35.4,95,55,19,29.68,29.60,11,2,15,0.00
2013-6-13,83.5,68.4,60.1,66.6,60.9,54.2,99,79,48,29.62,29.25,14,4,24,0.89
2013-6-14,80.8,67.4,58.3,55.8,46.7,31.6,89,53,18,29.77,29.44,14,4,22,0.01
2013-6-15,84.4,69.3,53.1,62.5,44.3,19.2,99,54,10,29.87,29.76,12,2,19,0.00
2013-6-16,83.8,70.2,57.7,59.9,53.6,38.2,87,59,33,29.82,29.61,13,2,18,0.00
2013-6-17,84.6,69.0,62.8,66.4,61.9,59.5,99,80,44,29.74,29.67,4,1,6,0.00
2013-6-18,80.8,75.4,64.4,58.5,54.5,50.1,60,48,40,29.74,29.61,12,3,19,0.00
2013-6-19,85.1,69.1,56.1,50.2,35.7,15.5,75,36,10,29.97,29.74,10,2,14,0.00
2013-6-20,88.2,69.9,49.6,55.6,46.8,29.7,96,52,16,30.07,29.96,10,1,15,0.00
2013-6-21,90.3,74.4,58.1,59.8,50.7,42.5,95,50,20,30.09,30.00,8,1,17,0.00
2013-6-22,93.0,75.8,56.7,61.6,54.2,48.0,88,51,23,30.04,29.89,7,1,13,0.00
2013-6-23,94.8,80.9,65.3,68.7,57.7,41.4,97,51,18,29.97,29.83,7,1,14,0.00
2013-6-24,96.3,80.8,65.7,67.6,60.0,42.9,96,54,21,29.91,29.78,7,1,14,0.00
2013-6-25,92.3,77.3,66.4,70.1,64.7,52.9,99,70,31,29.81,29.65,22,2,39,1.41
2013-6-26,89.1,75.4,67.1,72.1,63.7,54.2,99,71,32,29.69,29.61,6,1,10,0.01
2013-6-27,89.1,72.8,66.2,74.1,67.4,57.5,99,86,38,29.62,29.35,12,1,19,1.67
2013-6-28,87.3,73.4,65.5,71.5,65.2,54.4,99,79,34,29.38,29.28,16,1,21,1.18
2013-6-29,89.8,73.7,63.5,73.6,60.3,43.4,99,71,22,29.52,29.30,8,1,14,0.07
2013-6-30,95.2,75.3,63.7,73.3,64.5,55.5,99,74,29,29.68,29.50,14,2,18,0.01
2013-7-1,88.3,75.7,70.2,74.7,68.8,63.4,99,81,45,29.78,29.65,10,1,16,0.15
2013-7-2,85.5,76.2,70.3,76.0,69.1,63.0,99,80,53,29.94,29.77,11,1,17,0.01
2013-7-3,91.4,78.6,73.4,72.2,66.7,62.1,95,68,38,30.03,29.93,8,1,15,0.00
2013-7-4,95.9,82.0,71.8,73.4,66.7,56.1,99,64,29,30.03,29.93,8,1,14,0.00
2013-7-5,95.9,86.5,72.3,71.9,65.4,57.0,95,52,29,29.99,29.88,8,1,14,0.00
2013-7-6,97.5,84.2,71.2,77.3,66.1,54.0,99,60,25,29.97,29.83,8,1,13,0.00
2013-7-7,96.6,80.2,68.9,75.3,64.7,52.6,99,66,25,29.88,29.76,16,1,26,0.04
2013-7-8,89.6,75.3,66.2,72.5,64.3,52.6,99,73,29,29.89,29.82,14,1,27,0.01
2013-7-9,87.8,74.8,66.9,73.3,66.9,60.4,99,79,42,29.89,29.79,8,1,17,0.00
2013-7-10,89.6,77.0,68.4,74.5,67.3,58.5,99,76,36,29.79,29.63,21,1,41,0.00
2013-7-11,89.4,76.2,68.2,69.0,56.3,32.7,99,59,14,29.76,29.63,9,2,14,0.00
2013-7-12,81.5,72.3,64.0,70.6,60.5,54.0,99,69,42,29.90,29.75,9,1,13,0.00
2013-7-13,89.1,75.1,67.6,71.9,67.1,59.3,99,80,38,30.07,29.87,8,1,11,0.00
2013-7-14,88.5,74.3,69.3,77.1,70.5,65.2,99,90,49,30.14,30.07,4,0,8,0.00
2013-7-15,99.0,89.9,77.2,71.3,60.9,50.8,82,42,21,30.03,29.98,7,2,11,0.00
2013-7-16,99.3,83.8,72.0,78.0,63.3,36.6,99,60,14,30.09,29.98,9,2,14,0.00
2013-7-17,102.2,83.8,69.4,73.3,63.7,47.1,99,59,17,30.05,29.88,7,1,11,0.00
2013-7-18,101.8,83.8,72.0,77.8,66.2,47.8,99,64,18,29.91,29.78,20,1,30,0.01
2013-7-19,99.9,83.9,68.7,73.0,65.8,54.9,99,61,24,29.81,29.61,8,2,14,0.00
2013-7-20,95.7,82.6,74.8,70.6,63.3,46.5,85,56,20,29.66,29.56,12,2,19,0.00
2013-7-21,95.5,81.1,69.6,71.7,54.3,26.0,94,49,10,29.75,29.66,8,1,9,0.00
2013-7-22,89.4,76.7,68.0,73.0,66.6,59.3,99,74,41,29.75,29.56,8,1,14,0.26
2013-7-23,90.3,78.2,71.4,73.9,63.5,46.8,99,66,23,29.57,29.42,11,3,19,0.05
2013-7-24,79.2,72.1,60.1,58.7,47.0,30.3,67,44,17,29.82,29.48,15,3,22,0.00
2013-7-25,81.9,64.7,50.5,58.3,46.2,36.9,93,55,21,29.87,29.80,9,2,13,0.00
2013-7-26,90.0,70.7,54.1,58.9,45.7,18.8,99,54,10,29.91,29.81,8,1,13,0.00
2013-7-27,83.1,68.3,56.1,69.2,60.5,53.3,99,79,42,29.85,29.70,17,1,29,0.91
2013-7-28,87.6,73.0,64.9,69.5,64.2,42.1,99,77,23,29.78,29.68,8,1,16,0.12
2013-7-29,82.6,69.9,56.5,67.7,47.2,21.8,99,57,11,29.95,29.78,11,2,16,0.00
2013-7-30,85.5,68.6,54.3,60.6,48.2,28.9,99,59,14,30.03,29.94,7,2,11,0.00
2013-7-31,88.7,71.1,55.6,63.4,53.7,34.3,99,63,15,29.99,29.79,7,1,11,0.00
2013-8-1,85.8,73.6,68.0,70.4,63.8,58.4,99,73,42,29.79,29.60,6,1,11,0.17
2013-8-2,86.0,73.4,62.8,69.7,53.2,33.7,99,59,19,29.75,29.65,11,1,18,0.01
2013-8-3,82.6,70.8,62.6,70.8,62.2,53.8,99,77,41,29.75,29.67,7,1,14,0.80
2013-8-4,80.4,67.7,55.2,65.2,48.2,24.7,99,60,13,29.85,29.73,14,3,21,0.01
2013-8-5,81.7,66.7,54.7,60.3,44.7,14.3,99,57,10,29.93,29.83,8,1,12,0.00
2013-8-6,81.5,67.8,55.9,56.4,52.9,43.0,95,63,26,29.89,29.84,12,2,17,0.00
2013-8-7,76.5,70.3,66.2,68.6,62.3,56.1,94,76,65,29.89,29.79,9,2,15,0.11
2013-8-8,91.6,74.7,63.3,72.2,65.2,60.7,99,76,38,29.85,29.75,8,1,14,0.00
2013-8-9,89.1,78.8,71.8,73.0,68.7,58.0,99,73,43,29.75,29.64,10,2,15,0.08
2013-8-10,87.3,74.2,63.0,71.5,54.7,30.1,99,61,14,29.89,29.73,11,2,18,0.01
2013-8-11,87.1,70.0,58.5,63.9,55.2,41.4,96,66,21,29.96,29.82,5,0,10,0.00
2013-8-12,88.9,74.8,64.0,67.1,56.6,36.1,96,61,16,29.85,29.73,5,0,9,0.01
2013-8-13,88.0,77.1,66.7,69.9,54.2,39.7,99,50,19,29.66,29.52,13,4,21,0.24
2013-8-14,75.6,65.3,53.2,48.0,35.5,22.5,75,36,14,29.90,29.66,14,4,24,0.01
2013-8-15,84.7,63.9,47.3,51.8,38.9,16.3,96,53,10,30.00,29.89,7,1,10,0.00
2013-8-16,86.0,69.2,51.6,54.3,39.1,18.0,98,47,10,30.01,29.94,7,1,11,0.00
2013-8-17,88.0,67.3,52.7,58.5,47.8,21.8,97,61,10,30.10,30.01,5,1,8,0.00
2013-8-18,78.6,66.9,60.3,59.2,54.7,44.6,91,69,31,30.08,29.96,4,0,7,0.00
2013-8-19,86.4,70.8,59.5,63.1,58.2,49.3,96,69,29,29.98,29.85,4,1,8,0.04
2013-8-20,91.0,72.7,60.6,68.8,55.9,30.5,99,67,12,29.97,29.88,6,1,11,0.00
2013-8-21,91.4,67.8,56.7,65.1,59.7,38.8,99,81,16,30.02,29.84,4,0,8,0.00
2013-8-22,89.4,73.7,67.8,69.4,63.2,45.0,99,76,22,29.86,29.69,21,1,34,0.67
2013-8-23,86.9,71.2,61.2,70.4,55.4,25.3,99,66,11,29.96,29.75,8,1,12,0.00
2013-8-24,87.8,68.5,53.1,57.9,45.9,21.4,99,57,10,30.15,29.96,7,1,12,0.00
2013-8-25,87.1,68.8,52.9,59.8,48.7,28.6,99,59,15,30.22,30.02,7,1,14,0.00
2013-8-26,91.4,75.2,61.7,68.0,54.8,42.2,93,56,19,30.03,29.76,9,2,16,0.05
2013-8-27,91.8,78.8,72.5,68.8,63.8,47.4,87,64,22,29.72,29.66,3,1,5,0.00
2013-8-28,73.8,71.0,69.4,71.0,69.9,68.3,99,96,86,29.70,29.66,2,0,4,0.12
2013-8-29,91.6,74.8,65.8,70.8,63.8,52.4,99,74,28,29.84,29.69,4,1,8,0.00
2013-8-30,93.2,76.5,64.6,72.4,62.8,53.2,99,69,28,29.82,29.62,8,1,11,0.00
2013-8-31,92.1,81.8,71.2,71.4,63.6,57.3,96,56,34,29.65,29.56,8,1,12,0.00
2013-9-1,90.0,77.6,68.5,73.1,67.6,59.3,99,75,37,29.65,29.56,5,1,8,0.00
2013-9-2,104.2,77.3,68.9,73.4,64.6,51.1,99,70,24,29.61,29.48,9,1,17,0.04
2013-9-3,79.9,72.5,64.9,68.2,48.6,28.0,97,48,15,29.78,29.54,15,4,22,0.01
2013-9-4,85.8,70.8,54.9,56.2,43.0,21.7,91,44,10,29.87,29.77,12,3,20,0.00
2013-9-5,80.1,67.2,56.8,58.9,39.7,14.0,95,49,10,30.00,29.78,14,3,23,0.00
2013-9-6,79.0,59.5,43.9,45.0,30.5,8.6,91,45,10,30.11,29.95,9,2,12,0.00
2013-9-7,83.5,63.5,44.4,53.5,38.3,18.5,92,50,10,29.96,29.70,8,1,11,0.00
2013-9-8,78.6,67.3,52.9,65.7,49.0,26.1,99,59,16,29.93,29.68,15,2,22,0.04
2013-9-9,76.3,60.5,42.8,56.0,42.4,30.8,91,56,25,30.04,29.91,10,1,14,0.00
2013-9-10,90.9,71.2,62.6,70.6,61.2,56.0,92,73,34,29.96,29.84,6,1,11,0.00
2013-9-11,98.2,79.0,69.6,76.8,67.3,53.9,99,74,25,29.94,29.77,16,1,28,0.04
2013-9-12,89.8,72.4,67.8,74.2,68.7,56.1,99,90,37,29.80,29.54,17,1,32,0.60
2013-9-13,74.5,65.6,56.5,67.9,43.5,13.7,99,51,11,29.77,29.52,19,4,27,0.80
2013-9-14,69.4,55.6,45.3,44.7,34.8,16.2,90,49,13,29.97,29.76,12,3,19,0.00
2013-9-15,76.5,56.1,40.3,50.9,40.6,21.5,99,66,13,30.06,29.86,8,1,14,0.00
2013-9-16,73.4,61.7,52.0,57.9,45.2,28.7,99,61,21,30.13,29.85,12,2,17,0.02
2013-9-17,75.7,54.6,38.8,40.1,27.2,6.3,89,45,10,30.27,30.12,12,1,21,0.00
2013-9-18,76.1,55.5,39.0,50.9,34.1,12.1,98,59,10,30.15,29.97,7,1,11,0.00
2013-9-19,83.3,60.1,41.5,55.3,42.2,26.3,99,63,13,30.00,29.86,6,1,9,0.00
2013-9-20,85.5,65.9,49.5,62.0,47.4,32.0,99,61,15,29.89,29.73,8,2,14,0.01
2013-9-21,71.4,64.7,59.2,63.3,55.4,49.4,99,73,49,29.75,29.47,10,2,19,0.45
2013-9-22,67.3,60.1,51.8,60.5,39.6,20.4,99,55,18,29.79,29.52,11,3,17,0.04
2013-9-23,67.5,55.5,44.4,41.2,28.2,12.7,87,39,13,29.91,29.78,14,3,21,0.00
2013-9-24,79.2,55.5,38.1,49.5,33.8,10.8,97,58,10,29.93,29.74,8,1,12,0.00
2013-9-25,82.6,56.3,39.7,48.8,37.5,11.5,99,63,10,29.82,29.69,2,0,4,0.01
2013-9-26,79.3,59.7,42.1,53.9,38.8,15.4,99,59,10,29.90,29.77,8,0,11,0.01
2013-9-27,81.5,64.4,52.9,51.3,39.8,16.0,83,50,10,30.05,29.89,8,0,12,0.00
2013-9-28,75.6,60.4,51.3,50.9,45.8,32.9,92,64,23,30.13,30.03,4,0,7,0.00
2013-9-29,76.1,57.6,40.1,52.9,43.3,27.4,99,67,18,30.03,29.87,8,1,13,0.01
2013-9-30,82.8,59.8,46.2,56.2,43.7,19.4,99,67,10,29.91,29.76,7,1,11,0.00
2013-10-1,82.8,64.0,51.6,53.0,45.3,18.9,96,61,10,29.87,29.74,11,2,19,0.00
2013-10-2,87.8,67.4,50.2,59.0,48.0,26.8,99,61,12,29.87,29.76,14,2,20,0.00
2013-10-3,86.0,67.3,53.1,59.9,52.8,37.5,99,68,18,29.95,29.82,5,1,9,0.00
2013-10-4,89.8,68.6,59.9,67.8,61.5,46.9,99,82,23,29.89,29.79,13,1,20,0.14
2013-10-5,89.6,71.7,61.7,71.3,60.9,45.6,99,76,23,29.91,29.78,8,1,11,0.14
2013-10-6,85.3,75.8,65.8,72.4,61.2,53.3,99,62,34,29.82,29.70,13,5,21,0.01
2013-10-7,76.5,65.5,52.2,64.2,50.8,28.0,95,61,29,29.86,29.45,17,4,30,0.97
2013-10-8,75.6,55.2,41.9,50.6,34.1,8.5,99,58,10,30.14,29.86,11,1,16,0.00
2013-10-9,66.4,52.6,41.4,45.3,34.4,14.3,99,60,14,30.22,30.09,7,1,8,0.00
2013-10-10,61.3,51.5,44.4,51.4,42.8,26.9,99,76,29,30.10,29.91,5,0,8,1.23
2013-10-11,67.6,58.0,50.7,58.0,51.1,42.5,99,79,50,29.91,29.83,9,1,12,0.81
2013-10-12,79.9,64.0,53.6,57.0,36.7,9.7,99,50,10,30.03,29.87,11,1,15,0.00
2013-10-13,72.9,62.0,52.2,49.4,39.5,26.9,84,47,18,30.14,30.03,6,1,10,0.00
2013-10-14,70.7,59.4,48.7,52.1,42.7,27.2,97,60,21,30.17,30.03,6,1,8,0.00
2013-10-15,79.0,60.3,48.6,58.2,43.8,20.0,99,63,12,30.06,29.88,6,1,9,0.00
2013-10-16,67.5,59.4,51.8,54.9,46.0,37.3,81,62,46,29.88,29.69,7,1,10,0.00
2013-10-17,77.0,65.2,58.8,62.9,51.4,30.8,99,66,19,29.72,29.44,14,2,23,0.25
2013-10-18,68.2,55.0,42.3,43.9,30.0,5.7,85,44,10,29.80,29.58,16,4,30,0.07
2013-10-19,61.5,48.9,35.4,51.0,39.4,30.5,97,74,33,29.80,29.54,12,1,19,0.07
2013-10-20,65.8,51.1,39.0,33.9,23.6,2.7,80,40,10,29.87,29.64,13,3,22,0.00
2013-10-21,71.4,51.8,34.2,37.9,22.8,4.2,93,46,10,29.94,29.72,8,2,14,0.00
2013-10-22,66.2,53.2,39.6,36.4,22.5,-2.3,58,35,10,29.72,29.60,13,2,21,0.00
2013-10-23,50.0,42.5,35.1,29.0,23.8,9.1,71,50,20,29.65,29.50,10,2,14,0.00
2013-10-24,50.2,43.0,35.4,29.4,14.3,-5.8,69,36,10,29.86,29.64,17,4,26,0.32
2013-10-25,55.4,43.3,33.3,25.8,17.1,-1.6,68,38,10,30.05,29.86,13,3,21,0.00
2013-10-26,56.7,42.7,26.6,30.4,10.6,-3.8,89,40,10,30.05,29.69,14,2,21,0.01
2013-10-27,55.4,47.2,33.3,23.5,11.2,-3.3,67,26,10,29.94,29.70,14,4,23,0.00
2013-10-28,67.8,44.1,27.3,28.0,18.7,2.1,85,47,10,30.12,29.93,8,1,12,0.00
2013-10-29,64.2,46.5,33.1,35.9,21.4,2.1,88,45,10,30.23,30.11,7,1,10,0.00
2013-10-30,73.8,50.9,37.8,41.1,28.0,8.8,84,48,10,30.12,29.92,5,1,8,0.00
2013-10-31,65.1,56.6,46.0,60.0,51.8,41.2,99,84,75,29.99,29.49,9,1,15,0.25
2013-11-1,75.2,63.0,46.2,58.3,38.5,6.8,85,50,10,29.50,29.25,16,4,29,0.37
2013-11-2,64.8,50.4,41.0,43.3,34.0,13.4,93,59,21,29.64,29.46,11,2,20,0.00
2013-11-3,50.0,42.7,30.6,34.4,10.3,-10.9,56,30,10,30.30,29.64,14,5,24,0.00
2013-11-4,47.1,34.4,22.8,18.0,4.3,-12.2,74,35,10,30.45,30.30,7,1,9,0.00
2013-11-5,58.3,42.8,29.5,33.2,19.4,6.3,69,42,16,30.43,30.23,8,1,12,0.00
2013-11-6,67.1,54.7,38.8,40.6,36.4,29.7,89,53,25,30.25,29.77,14,3,21,0.00
2013-11-7,60.8,52.3,40.5,53.9,33.9,7.8,97,53,25,29.83,29.65,21,4,31,1.18
2013-11-8,50.5,41.6,37.4,29.0,10.9,-2.7,70,30,12,30.07,29.82,17,4,28,0.61
2013-11-9,52.2,42.0,28.9,21.8,7.2,-5.8,70,30,10,30.11,29.74,13,2,21,0.00
2013-11-10,56.5,45.2,31.3,28.3,8.1,-5.5,76,27,10,29.96,29.69,22,5,35,5.33
2013-11-11,50.4,44.3,30.7,22.7,9.3,-4.7,68,28,10,30.04,29.77,11,3,19,0.00
2013-11-12,49.8,35.6,30.0,27.0,-0.8,-17.9,77,26,10,30.16,29.78,16,6,27,0.18
2013-11-13,42.3,32.6,26.4,11.8,-5.5,-18.7,51,21,10,30.25,30.10,15,4,21,0.00
2013-11-14,58.6,38.6,24.4,13.2,-0.6,-16.8,54,22,10,30.10,29.97,11,2,17,0.00
2013-11-15,61.0,39.2,23.9,13.5,4.3,-9.3,61,29,10,30.06,29.95,8,1,14,0.00
2013-11-16,65.5,51.2,35.2,40.5,24.4,4.9,85,41,10,30.11,29.99,10,2,14,0.00
2013-11-17,62.6,56.1,49.5,54.1,47.7,40.9,91,74,63,30.00,29.42,19,4,29,0.11
2013-11-18,62.8,55.0,45.7,54.8,16.6,-5.8,80,30,10,29.71,29.38,31,7,42,1.42
2013-11-19,45.7,39.7,26.6,14.6,3.3,-9.5,57,23,10,30.22,29.71,21,6,34,0.64
2013-11-20,52.0,35.0,25.0,17.7,2.8,-12.7,63,30,10,30.37,30.21,9,1,14,0.00
2013-11-21,46.0,35.6,21.9,22.3,11.1,-18.3,58,38,10,30.39,30.15,5,1,8,0.00
2013-11-22,52.2,46.4,41.0,45.4,33.6,21.3,88,62,36,30.16,29.80,17,1,24,0.04
2013-11-23,48.6,37.1,24.3,22.2,3.2,-24.4,43,26,10,29.97,29.78,22,8,37,3.07
2013-11-24,30.0,24.0,19.6,2.1,-20.5,-27.9,41,14,10,30.24,29.96,17,8,35,2.30
2013-11-25,34.0,27.2,17.2,3.7,-10.7,-19.6,49,22,10,30.29,30.06,12,3,16,0.00
2013-11-26,33.4,31.3,27.9,31.9,15.2,-18.2,94,61,10,30.09,29.42,5,0,8,1.41
2013-11-27,38.3,34.6,27.9,36.4,20.5,-3.9,99,62,24,29.73,29.33,21,6,33,1.65
2013-11-28,33.6,28.5,25.3,10.6,3.4,-4.2,52,34,21,30.25,29.73,17,5,27,0.06
2013-11-29,36.3,28.1,18.3,16.8,5.3,-11.6,69,40,14,30.53,30.24,10,2,14,0.00
2013-11-30,37.2,26.1,12.9,11.0,2.3,-18.0,75,43,10,30.53,30.15,9,2,15,0.00
2013-12-1,34.5,29.2,19.2,18.4,13.7,9.4,80,54,36,30.15,29.82,4,1,6,0.00
2013-12-2,43.9,35.1,30.0,23.4,18.0,11.9,69,51,28,29.82,29.67,4,1,7,0.00
2013-12-3,53.2,39.1,30.0,27.6,22.2,11.9,87,55,19,29.81,29.69,4,0,7,0.00
2013-12-4,53.1,38.7,28.9,36.8,28.8,22.8,97,71,32,29.92,29.80,5,0,8,0.00
2013-12-5,57.2,52.5,45.9,53.3,47.5,34.6,99,84,63,29.85,29.69,9,2,15,0.19
2013-12-6,52.3,41.7,32.0,52.1,34.6,20.5,99,78,39,30.01,29.68,14,3,21,0.93
2013-12-7,39.7,32.7,25.9,30.3,15.0,-0.5,92,51,20,30.36,29.98,11,3,17,0.06
2013-12-8,27.9,24.5,19.2,22.2,11.4,0.7,83,59,32,30.39,30.11,4,0,6,0.00
2013-12-9,34.2,30.9,26.2,31.4,27.9,22.0,94,88,82,30.11,29.79,4,0,8,0.08
2013-12-10,35.4,31.4,26.4,28.5,4.0,-21.8,83,36,10,29.95,29.74,21,5,34,0.76
2013-12-11,36.7,28.1,23.2,4.9,-9.1,-20.1,40,20,10,30.14,29.94,17,5,25,0.00
2013-12-12,26.2,22.8,19.8,6.4,-17.6,-28.9,44,17,10,30.19,29.95,14,5,23,0.00
2013-12-13,38.7,28.5,18.9,7.5,-13.9,-25.8,42,16,10,30.10,29.93,11,4,20,0.00
2013-12-14,29.8,26.2,24.1,22.5,14.0,2.9,85,62,37,30.17,29.58,12,2,20,0.00
2013-12-15,36.7,28.4,25.0,29.9,16.4,0.3,90,65,27,29.69,29.42,17,3,28,0.21
2013-12-16,36.9,21.8,12.0,3.3,-10.7,-23.0,52,26,10,29.99,29.69,24,5,36,0.43
2013-12-17,28.2,20.7,12.0,16.1,9.8,-3.2,76,63,43,29.97,29.75,4,0,7,0.00
2013-12-18,37.8,25.8,12.4,19.6,5.7,-6.6,75,47,15,29.97,29.78,17,3,25,0.11
2013-12-19,51.6,31.3,15.1,20.0,6.7,-9.5,77,43,10,29.96,29.81,5,1,8,0.00
2013-12-20,47.1,36.6,29.7,26.1,19.9,11.4,68,52,25,29.88,29.73,4,0,6,0.00
2013-12-21,52.7,43.7,36.5,45.9,32.5,22.5,98,67,34,29.76,29.62,6,1,10,0.15
2013-12-22,68.2,60.2,43.2,60.0,50.6,42.6,99,72,49,29.73,29.48,22,5,37,0.08
2013-12-23,57.0,48.0,35.4,53.3,36.5,9.7,99,69,32,30.03,29.70,18,3,27,0.19
2013-12-24,36.1,28.8,21.9,21.9,4.7,-20.0,74,39,14,30.22,29.96,19,4,34,0.41
2013-12-25,27.1,21.9,15.1,-3.0,-12.0,-23.5,37,22,10,30.35,30.13,11,2,17,0.00
2013-12-26,39.7,29.5,23.7,16.6,6.9,-6.7,71,40,23,30.13,29.97,11,3,20,0.01
2013-12-27,44.1,30.7,22.5,16.1,5.9,-10.3,68,39,10,30.15,30.06,8,2,12,0.00
2013-12-28,63.9,37.0,20.8,25.8,11.5,-6.1,82,47,10,30.06,29.86,10,1,17,0.00
2013-12-29,39.4,35.4,31.1,38.7,29.1,18.9,98,79,57,29.86,29.38,4,1,9,0.67
2013-12-30,42.6,33.7,23.4,36.2,9.3,-11.6,91,40,14,29.99,29.55,15,5,24,0.01
2013-12-31,36.0,25.1,21.6,15.2,-4.0,-22.1,57,30,10,30.09,29.85,25,5,40,3.90
2014-1-1,32.4,27.1,23.2,11.6,4.7,-4.5,54,38,28,30.18,29.96,9,2,16,0.00
2014-1-2,30.0,26.1,15.4,20.8,13.9,7.9,79,61,47,29.96,29.52,18,2,24,0.04